[[{"header":{"parameterUnit":"m.s-1","parameterCategory":1,"la1":30.2991,"la2":30.254,"lo1":-89.0895,"lo2":-89.0444,"dy":0.0017,"dx":0.0017,"nx":28,"ny":28,"refTime":"2023-10-11T21:00:00:Z","depth":0,"parameterNumber":2,"parameterNumberName":"U-component_of_WINDS"},"data":[0,0,0,0,0,0,0,0,0,0,0,0,0,0,0,0,0,0,0,0,0,0,0,0,0,0,0,0,0,0,0,0,0,0,0,0,0,0,0,0,0,0,0,0,0,0,0,0,0,0,0,0,0,0,0,0,0,0,-5.7257,-5.726,0,-5.748,-5.7482,-5.7485,-5.7429,-5.7425,-5.7421,-5.7417,-5.7647,-5.7657,-5.7667,0,0,0,0,0,0,0,0,0,0,0,0,0,-5.6788,-5.6797,-5.7257,-5.726,-5.7263,-5.7479,-5.7482,-5.7485,-5.743,-5.7425,-5.742,-5.7415,-5.7644,-5.7656,-5.7668,0,0,0,0,0,0,0,0,0,0,0,0,0,-5.6999,-5.68,-5.7256,-5.7261,-5.7264,-5.7479,-5.7482,-5.7486,-5.7431,-5.7425,-5.7418,-5.7412,-5.764,-5.7655,-5.767,-5.7895,0,0,-5.7717,-5.7723,0,0,0,0,0,0,0,0,-5.6987,-5.7016,-5.7258,-5.7261,-5.7264,-5.742,-5.7401,-5.7623,-5.7433,-5.7368,-5.7416,-5.7409,-5.7577,-5.7597,-5.7653,-5.7906,-5.7916,-5.7718,-5.7727,-5.7734,-5.7738,0,0,0,0,0,0,0,-5.6973,-5.7007,-5.7345,-5.7261,-5.7265,-5.7253,-5.7276,-5.7443,-5.7506,-5.7373,-5.7369,-5.7396,-5.7578,-5.7639,-5.7658,-5.7919,-5.7718,-5.7731,-5.7741,-5.7747,-5.8371,-5.8378,0,0,0,0,0,0,-5.6955,-5.6995,-5.7338,-5.7352,-5.7107,-5.7267,-5.7292,-5.7377,-5.7504,-5.7518,-5.7402,-5.7393,-5.7616,-5.7641,-5.7666,-5.7941,-5.7734,-5.7748,-5.7757,-5.8363,-5.8372,-5.838,0,0,0,0,0,0,-5.6945,-5.6986,-5.7329,-5.7173,-5.7215,-5.7282,-5.7377,-5.7385,-5.7445,-5.7526,-5.7537,-5.7452,-5.7612,-5.7645,-5.7839,-5.7948,-5.7755,-5.7769,-5.8355,-5.8366,-5.8376,-5.849,0,0,0,0,0,0,-5.6932,-5.6983,-5.7068,-5.7175,-5.7224,-5.7497,-5.7384,-5.7394,-5.7472,-5.7462,-5.7577,-5.7589,-5.7609,-5.7817,-5.7854,-5.7966,-5.7781,-5.8345,-5.836,-5.8373,-5.8477,-5.8504,-5.8527,0,0,0,0,0,-5.6915,-5.7091,-5.7073,-5.7114,-5.7332,-5.7504,-5.7532,-5.755,-5.748,-5.7568,-5.762,-5.7586,-5.7929,-5.7837,-5.7879,-5.7997,-5.8338,-5.8356,-5.8372,-5.8466,-5.8499,-5.8526,0,0,0,0,0,0,-5.6996,-5.7105,-5.7086,-5.7301,-5.7394,-5.7494,-5.7604,-5.7584,-5.7698,-5.7685,-5.7704,-5.773,-5.7929,-5.7982,-5.7877,-5.8223,-5.8124,-5.815,-5.8181,-5.8213,-5.8237,-5.8222,-5.7794,0,0,0,0,0,-5.7039,-5.7168,-5.7257,-5.7439,-5.7486,-5.7537,-5.7613,-5.7619,-5.7716,-5.7755,-5.7821,-5.7917,-5.8047,-5.8132,-5.8256,-5.8483,-5.851,-5.8585,-5.861,-5.863,-5.8653,-5.8781,-5.8817,-5.8435,-5.8435,-5.8434,0,0,-5.7129,-5.7204,-5.7285,-5.7457,-5.7529,-5.7665,-5.7571,-5.7717,-5.7819,-5.7777,-5.7966,-5.8018,-5.8126,-5.8339,-5.8436,-5.8389,-5.8764,-5.8651,-5.8667,-5.8679,-5.8802,-5.8838,-5.887,-5.8446,-5.8444,-5.8442,0,0,-5.7363,-5.7431,-5.7592,-5.7667,-5.7777,-5.781,-5.7849,-5.7953,-5.7986,-5.8175,-5.8148,-5.8269,-5.8491,-5.8571,-5.8641,-5.8906,-5.8881,-5.8946,-5.9077,-5.9201,-5.9231,-5.9258,-5.9356,-5.9391,-5.8968,-5.8968,-5.8969,0,-5.7461,-5.7663,-5.7677,-5.7828,-5.7905,-5.7873,-5.8037,-5.8109,-5.8255,-5.831,-5.8254,-5.8535,-5.8606,-5.8838,-5.8903,-5.8959,-5.9006,-5.8934,-5.9225,-5.9253,-5.9278,-5.9372,-5.9408,-5.8976,-5.8975,-5.8974,-5.8974,0,-5.778,-5.7921,-5.8037,-5.8179,-5.827,-5.8426,-5.8466,-5.8555,-5.8554,-5.8594,-5.8788,-5.8872,-5.9013,-5.9068,-5.9068,-5.9302,-5.927,-5.922,-5.9122,-5.9322,-5.9411,-5.9446,-5.8987,-5.8984,-5.8982,-5.898,0,0,-5.8073,-5.8221,-5.8264,-5.8329,-5.8449,-5.8559,-5.8714,-5.8852,-5.8931,-5.9032,-5.9165,-5.9355,-5.931,-5.9389,-5.9398,-5.9506,-5.9716,-5.9444,-5.9447,-5.9494,-5.9983,-6.0023,-6.0064,-5.9698,-5.9705,-5.971,-5.9975,0,-5.832,-5.8594,-5.8612,-5.886,-5.8992,-5.8964,-5.91,-5.919,-5.9231,-5.935,-5.9396,-5.9532,-5.946,-5.9508,-5.9614,-5.9668,-5.9815,-5.9649,-5.9825,-5.9831,-5.9802,-6.011,-6.0151,-6.0397,-6.001,-6.0016,-6.002,0,-5.8645,-5.8757,-5.9019,-5.9123,-5.9179,-5.9301,-5.943,-5.9543,-5.9645,-5.9668,-5.9757,-5.9751,-5.9913,-5.9807,-6.0032,-5.9919,-5.9992,-6.0029,-6.0039,-6.0059,-5.994,-6.0141,-6.0475,-6.0514,-6.0074,-6.007,-6.0066,0,-5.8836,-5.9052,-5.9238,-5.9294,-5.9419,-5.9506,-5.9562,-5.9657,-5.9739,-5.9852,-5.9907,-6.0037,-6.011,-6.0212,-6.0242,-6.0161,-6.0468,-6.0364,-6.0494,-6.0494,-6.0562,-6.0558,-6.0917,-6.0604,-6.0603,-6.0603,-6.0602,0,-5.9112,-5.9275,-5.9326,-5.944,-5.9622,-5.9641,-5.9821,-5.9872,-5.9957,-6.0082,-6.0065,-6.0183,-6.0214,-6.0339,-6.0363,-6.0549,-6.058,-6.0605,-6.0611,-6.0609,-6.0606,-6.0659,-6.0645,-6.0613,-6.061,-6.0608,-6.0607,0,-5.9358,-5.9398,-5.9599,-5.9701,-5.973,-5.986,-5.9948,-6.0059,-6.0098,-6.0257,-6.0295,-6.0357,-6.0503,-6.0543,-6.0717,-6.0734,-6.0953,-6.094,-6.0919,-6.092,-6.1049,-6.1038,-6.1457,-6.1515,-6.1161,-6.1164,-6.1167,0,-5.9533,-5.9657,-5.9773,-5.9855,-5.9916,-6.0048,-6.0133,-6.0157,-6.0246,-6.0372,-6.0469,-6.0612,-6.0729,-6.0964,-6.1026,-6.116,-6.1153,-6.129,-6.1173,-6.1169,-6.1159,-6.1153,-6.1167,-6.1314,-6.1317,-6.132,-6.1323,0,-5.9841,-5.9855,-5.9977,-6.0108,-6.0209,-6.0312,-6.0412,-6.048,-6.0519,-6.062,-6.0769,-6.0859,-6.1038,-6.1183,-6.1319,-6.1378,-6.1359,-6.1359,-6.1397,-6.1398,-6.1382,-6.1396,-6.0983,-6.135,-6.1347,-6.1345,-6.1344,-6.1343,-6.0059,-6.017,-6.0269,-6.0406,-6.0483,-6.0577,-6.0687,-6.074,-6.0865,-6.1012,-6.1018,-6.1181,-6.1282,-6.1463,-6.153,-6.1659,-6.1618,-6.1672,-6.1686,-6.17,-6.1713,-6.1359,-6.1683,-6.1682,-6.1682,-6.1681,-6.1681,0,-6.0369,-6.0432,-6.0558,-6.0698,-6.0807,-6.0777,-6.0886,-6.0979,-6.1123,-6.1217,-6.1333,-6.1506,-6.1646,-6.1718,-6.1858,-6.1948,-6.1943,-6.1984,-6.1979,-6.1994,-6.174,-6.1695,-6.1986,-6.1986,-6.1986,-6.1986,-6.1986,-6.1986,-6.0544,-6.073,-6.0756,-6.0981,-6.1043,-6.1202,-6.1267,-6.1355,-6.1431,-6.1625,-6.1741,-6.1786,-6.1874,-6.202,-6.2148,-6.2166,-6.222,-6.2267,-6.2281,-6.2043,-6.2012,-6.1982,-6.194,-6.2278,-6.2278,-6.2525,-6.2527,-6.2529]},{"header":{"parameterUnit":"m.s-1","parameterCategory":1,"la1":30.2991,"la2":30.254,"lo1":-89.0895,"lo2":-89.0444,"dy":0.0017,"dx":0.0017,"nx":28,"ny":28,"refTime":"2023-10-11T21:00:00:Z","depth":0,"parameterNumber":3,"parameterNumberName":"V-component_of_WINDS"},"data":[0,0,0,0,0,0,0,0,0,0,0,0,0,0,0,0,0,0,0,0,0,0,0,0,0,0,0,0,0,0,0,0,0,0,0,0,0,0,0,0,0,0,0,0,0,0,0,0,0,0,0,0,0,0,0,0,0,0,-7.8789,-7.8789,0,-7.8809,-7.8809,-7.8809,-7.8682,-7.8678,-7.8674,-7.8671,-7.8689,-7.8693,-7.8696,0,0,0,0,0,0,0,0,0,0,0,0,0,-7.8638,-7.8641,-7.8789,-7.8789,-7.879,-7.8809,-7.8809,-7.8809,-7.8682,-7.8678,-7.8673,-7.8669,-7.8688,-7.8692,-7.8697,0,0,0,0,0,0,0,0,0,0,0,0,0,-7.8685,-7.8642,-7.8789,-7.8729,-7.8723,-7.8809,-7.8809,-7.881,-7.8683,-7.8678,-7.8672,-7.8667,-7.8686,-7.8692,-7.8697,-7.8841,0,0,-7.8715,-7.8717,0,0,0,0,0,0,0,0,-7.8683,-7.8691,-7.8737,-7.8733,-7.8727,-7.8737,-7.8762,-7.882,-7.8685,-7.8698,-7.8671,-7.8665,-7.8709,-7.8713,-7.8728,-7.8842,-7.8843,-7.8715,-7.8719,-7.8721,-7.8723,0,0,0,0,0,0,0,-7.8679,-7.8689,-7.8797,-7.8738,-7.8732,-7.8699,-7.87,-7.8773,-7.8734,-7.8697,-7.8688,-7.8692,-7.8705,-7.8723,-7.8728,-7.8843,-7.8715,-7.872,-7.8724,-7.8726,-7.9075,-7.908,0,0,0,0,0,0,-7.8685,-7.8687,-7.8796,-7.8797,-7.8691,-7.8706,-7.8707,-7.8739,-7.8733,-7.8726,-7.8696,-7.8686,-7.8716,-7.8721,-7.8728,-7.8895,-7.8721,-7.8727,-7.873,-7.9069,-7.9076,-7.9082,0,0,0,0,0,0,-7.8682,-7.8696,-7.8795,-7.874,-7.875,-7.8715,-7.8752,-7.8743,-7.876,-7.8732,-7.8725,-7.8722,-7.8712,-7.872,-7.8814,-7.8894,-7.8729,-7.8735,-7.9062,-7.9071,-7.9079,-7.9232,0,0,0,0,0,0,-7.8678,-7.8695,-7.8751,-7.8742,-7.8754,-7.8883,-7.8757,-7.8747,-7.8771,-7.8757,-7.8754,-7.8748,-7.8708,-7.8806,-7.882,-7.8899,-7.8739,-7.9055,-7.9066,-7.9077,-7.922,-7.9245,-7.9266,0,0,0,0,0,-7.8673,-7.8792,-7.8754,-7.8768,-7.8822,-7.8887,-7.8894,-7.8846,-7.8778,-7.8832,-7.8814,-7.8748,-7.8883,-7.8817,-7.8831,-7.8913,-7.905,-7.9063,-7.9076,-7.9209,-7.924,-7.9266,0,0,0,0,0,0,-7.881,-7.879,-7.8747,-7.8867,-7.888,-7.8866,-7.8933,-7.888,-7.8912,-7.8897,-7.8835,-7.8836,-7.894,-7.8936,-7.8862,-7.9052,-7.8954,-7.8971,-7.9051,-7.908,-7.9103,-7.9102,-7.8744,0,0,0,0,0,-7.8854,-7.891,-7.8889,-7.8997,-7.9006,-7.8969,-7.8996,-7.8958,-7.8968,-7.8972,-7.8961,-7.8973,-7.9018,-7.9048,-7.9088,-7.9218,-7.9215,-7.9282,-7.9305,-7.9325,-7.934,-7.9408,-7.9437,-7.9125,-7.9125,-7.9125,0,0,-7.8946,-7.8942,-7.8981,-7.9025,-7.903,-7.9088,-7.8974,-7.9041,-7.9083,-7.8982,-7.907,-7.9063,-7.9072,-7.9185,-7.9234,-7.9184,-7.9425,-7.9341,-7.9357,-7.9361,-7.9424,-7.9454,-7.948,-7.9134,-7.9133,-7.9131,0,0,-7.9143,-7.9146,-7.9236,-7.9244,-7.9254,-7.9229,-7.9251,-7.9244,-7.9236,-7.9324,-7.9249,-7.9298,-7.9377,-7.9386,-7.9401,-7.9602,-7.9542,-7.9616,-7.9739,-7.9806,-7.983,-7.9852,-7.9923,-7.9949,-7.9631,-7.9632,-7.9632,0,-7.9256,-7.9342,-7.9289,-7.9361,-7.9382,-7.9294,-7.9384,-7.9394,-7.9416,-7.9432,-7.9377,-7.9474,-7.9473,-7.9587,-7.9636,-7.9652,-7.9674,-7.9616,-7.9831,-7.9852,-7.9871,-7.9938,-7.9965,-7.9641,-7.964,-7.9639,-7.9638,0,-7.9479,-7.954,-7.9611,-7.9636,-7.9665,-7.9746,-7.9704,-7.974,-7.9699,-7.968,-7.977,-7.9767,-7.9804,-7.9828,-7.9789,-7.9937,-7.9905,-7.9842,-7.9742,-7.9911,-7.9973,-7.9998,-7.9654,-7.965,-7.9648,-7.9645,0,0,-7.9763,-7.9758,-7.9785,-7.9795,-7.9799,-7.9845,-7.9921,-7.9958,-7.999,-8.0008,-8.007,-8.0139,-8.008,-8.0097,-8.0058,-8.0117,-8.0276,-8.0045,-8.0044,-8.0088,-8.0437,-8.0485,-8.0516,-8.0236,-8.0241,-8.0245,-8.0436,0,-7.9955,-8.0086,-8.0041,-8.0174,-8.0229,-8.0146,-8.0213,-8.0222,-8.0206,-8.0249,-8.023,-8.028,-8.0198,-8.0208,-8.0263,-8.0245,-8.0345,-8.023,-8.0293,-8.0295,-8.0293,-8.0548,-8.0599,-8.078,-8.046,-8.0464,-8.0467,0,-8.0197,-8.0226,-8.0365,-8.036,-8.0381,-8.0442,-8.0472,-8.0515,-8.0524,-8.0507,-8.0528,-8.0476,-8.0549,-8.0451,-8.055,-8.0474,-8.0496,-8.0491,-8.0497,-8.0501,-8.0392,-8.0559,-8.0837,-8.0864,-8.0505,-8.0502,-8.0499,0,-8.039,-8.0463,-8.0556,-8.0567,-8.0563,-8.0608,-8.0608,-8.0612,-8.0637,-8.0663,-8.0679,-8.0713,-8.0732,-8.076,-8.0718,-8.0651,-8.0824,-8.0722,-8.0812,-8.0814,-8.0852,-8.085,-8.1138,-8.0868,-8.0868,-8.0867,-8.0867,0,-8.0609,-8.0697,-8.0642,-8.0699,-8.0795,-8.0742,-8.0838,-8.0829,-8.0833,-8.0886,-8.0816,-8.0867,-8.081,-8.0855,-8.0823,-8.0911,-8.092,-8.0908,-8.0898,-8.0914,-8.0916,-8.0928,-8.0914,-8.0874,-8.0873,-8.0871,-8.087,0,-8.084,-8.0807,-8.0903,-8.0892,-8.0891,-8.0962,-8.0952,-8.1004,-8.0982,-8.105,-8.1063,-8.103,-8.1079,-8.1041,-8.109,-8.1068,-8.1184,-8.1156,-8.1181,-8.1174,-8.1266,-8.1258,-8.1571,-8.1609,-8.1315,-8.1318,-8.132,0,-8.0983,-8.1049,-8.1045,-8.1076,-8.1081,-8.1132,-8.1157,-8.1107,-8.1136,-8.1151,-8.1201,-8.1245,-8.1278,-8.1361,-8.1341,-8.1377,-8.135,-8.1457,-8.1355,-8.1369,-8.1351,-8.1348,-8.1354,-8.1478,-8.1482,-8.1484,-8.1487,0,-8.1238,-8.1218,-8.1259,-8.1294,-8.1326,-8.1351,-8.137,-8.1399,-8.1348,-8.1384,-8.1435,-8.146,-8.151,-8.1555,-8.1585,-8.1583,-8.1527,-8.1519,-8.1542,-8.1559,-8.157,-8.1565,-8.1237,-8.1512,-8.151,-8.1508,-8.1506,-8.1505,-8.1429,-8.1483,-8.149,-8.1536,-8.1546,-8.1565,-8.1613,-8.1598,-8.1639,-8.1677,-8.1644,-8.1705,-8.1711,-8.1745,-8.1752,-8.1798,-8.1753,-8.1786,-8.1794,-8.1803,-8.1816,-8.1563,-8.1803,-8.1802,-8.1801,-8.1801,-8.18,0,-8.168,-8.168,-8.1724,-8.1753,-8.179,-8.1734,-8.1752,-8.1787,-8.1841,-8.1852,-8.1886,-8.1944,-8.1986,-8.1969,-8.2007,-8.2047,-8.2022,-8.2058,-8.2055,-8.2055,-8.1854,-8.1831,-8.2078,-8.2078,-8.2078,-8.2078,-8.2078,-8.2078,-8.1816,-8.1905,-8.1886,-8.1979,-8.1978,-8.2037,-8.2053,-8.207,-8.2078,-8.2146,-8.2182,-8.2171,-8.217,-8.2207,-8.2243,-8.2237,-8.2254,-8.23,-8.2285,-8.2097,-8.207,-8.2043,-8.2021,-8.2304,-8.2305,-8.2482,-8.2483,-8.2485]}]]